Regional Weather Roundup
Issued by NWS

Current Version | Previous Version | Text Only | Print | Product List | Glossary On
Versions: 1 2 3 4 5 6 7 8 9 10 11 12 13 14 15 16 17 18 19 20 21 22 23 24 25 26 27 28 29 30 31 32 33 34 35 36 37 38 39 40 41 42 43 44 45 46 47 48 49 50
000
ASUS45 KBOU 310707
RWRCO

WEATHER ROUNDUP FOR COLORADO
NATIONAL WEATHER SERVICE DENVER/BOULDER CO
100 AM MDT WED AUG 31 2016

NOTE: "FAIR" INDICATES FEW OR NO CLOUDS BELOW 12000 FEET WITH NO
SIGNIFICANT WEATHER AND/OR OBSTRUCTIONS TO VISIBILITY.

COZ001>005-013-030-031-310800-
...NORTHWEST COLORADO...

CITY           SKY/WX    TMP DP  RH WIND       PRES   REMARKS
CRAIG          FAIR      61  39  44 VRB3      30.29R
HAYDEN         FAIR      61  37  41 E12       30.32S
MEEKER         FAIR      57  41  55 NE3       30.30R
MOUNT WERNER   NOT AVBL
STEAMBOAT SPGS FAIR      52  39  61 CALM      30.36R
WALDEN         FAIR      43  36  75 S6        30.47S
$$

COZ006>008-011-310800-
...WEST CENTRAL VALLEYS...

CITY           SKY/WX    TMP DP  RH WIND       PRES   REMARKS
GRAND JUNCTION FAIR      70  42  36 E10       30.17R
MONTROSE       FAIR      63  45  51 CALM      30.28R
EAGLE          FAIR      55  43  62 CALM      30.38R
RIFLE          FAIR      69  46  43 E10       30.25R
DELTA          FAIR      67  46  45 NE3       30.23S
NUCLA          FAIR     N/A N/A N/A E9        30.31R
$$

COZ017>023-064>068-310800-
...SOUTHWEST COLORADO...

CITY           SKY/WX    TMP DP  RH WIND       PRES   REMARKS
DURANGO        MOCLDY    58  45  62 SE8       30.35R
CORTEZ         FAIR      56  49  77 CALM      30.27R
PAGOSA SPRINGS CLOUDY    55  44  65 CALM      30.44R
TELLURIDE      CLOUDY    51  46  83 SE7       30.53S
WOLF CREEK PAS FAIR      39  39 100 MISG      30.72S
$$

COZ009-010-012-014-032>034-037-058>063-310800-
...CENTRAL COLORADO...

CITY           SKY/WX    TMP DP  RH WIND       PRES   REMARKS
ASPEN          FAIR      49  42  77 CALM      30.42S
BUENA VISTA    FAIR      50  45  84 CALM      30.49S
COPPER MTN     FAIR      45  34  65 S12       30.69F
BERTHOUD PASS  FAIR      37  27  65 E8        30.72F
COTTONWOOD PAS FAIR      52  41  66 CALM      30.59S
GUNNISON       FAIR      55  43  62 N8        30.46S
KREMMLING      FAIR      45  37  76 CALM      30.44S
LEADVILLE      FAIR      36  34  92 E3        30.58S
MONARCH PASS   FOG       41  41 100 NE8       30.80S VSB<1/4
SALIDA         FAIR      56  48  74 NW6       30.53S
SUNLIGHT       CLOUDY    52  37  58 W7        30.64S
WILKERSON PASS FAIR      43  39  87 CALM      30.69F
$$

COZ069>075-310800-
...SAN LUIS VALLEY/SANGRE DE CRISTO MOUNTAINS...

CITY           SKY/WX    TMP DP  RH WIND       PRES   REMARKS
ALAMOSA        CLOUDY    56  47  71 SW5       30.44R
LA VETA PASS   FAIR      45  41  87 MISG      30.60S
SAGUACHE       CLOUDY    52  45  76 N5        30.46S
$$

COZ035-036-038>040-310800-
...NORTHERN COLORADO FRONT RANGE...

CITY           SKY/WX    TMP DP  RH WIND       PRES   REMARKS
DENVER INTL AP FAIR      61  54  77 VRB3      30.32S
DMNS CITY PARK   N/A     58  57  96 S1        30.32S
AURORA         PTCLDY    59  55  88 S2        30.33F
FRONT RANGE AP NOT AVBL
ERIE MUNI ARPT FAIR      57  50  76 S3        30.30S
BOULDER MUN AP FAIR      61  50  67 CALM      30.30S
CENTENNIAL     FAIR      57  53  86 CALM      30.34F
BROOMFIELD     FAIR      59  52  77 CALM      30.33S
FORT COLLINS   FAIR      59  54  82 N7        30.30F
LONGMONT       FAIR      62  56  81 NE5       30.31F
$$

COZ041-046-047-076>085-087-088-310800-
...PIKES PEAK/PALMER DIVIDE AND SOUTHERN FOOTHILLS...

CITY           SKY/WX    TMP DP  RH WIND       PRES   REMARKS
COLO. SPRINGS  FAIR      57  52  83 CALM      30.38S
A. F. ACADEMY  FAIR      54  52  92 N5        30.38S
SCHRIEVER AFB  NOT AVBL
ELLICOTT       NOT AVBL
FALCON         FAIR      56  53  88 CALM      30.42S
FORT CARSON    FAIR      57  52  81 NW7       30.34F
LIMON          MOCLDY    54  51  90 W3        30.33S
MONUMENT HILL  MOCLDY    52  50  93 SW7       30.42S
TRINIDAD       FAIR      57  51  80 NW9       30.33S
$$

COZ042>045-048>051-090-091-310800-
...NORTHEAST COLORADO...

CITY           SKY/WX    TMP DP  RH WIND       PRES   REMARKS
GREELEY ARPT   FAIR      57  54  88 CALM      30.30S
AKRON          FOG       59  58  96 SE5       30.29S VSB 1/4
BURLINGTON     MOCLDY    59  54  83 CALM      30.27S
WRAY           NOT AVBL
STERLING       CLOUDY    61  59  94 NE5       30.26S
HOLYOKE        CLOUDY    64  61  88 CALM      30.27S FOG
FORT MORGAN    FOG       58  56  95 CALM      30.29F VSB 3/4
$$

COZ086-089-092>099-310800-
...SOUTHEAST COLORADO...

CITY           SKY/WX    TMP DP  RH WIND       PRES   REMARKS
PUEBLO         FAIR      63  55  75 CALM      30.29R
LA JUNTA       FAIR      62  56  80 E5        30.25S
LAMAR          FAIR      60  57  89 CALM      30.21F
SPRINGFIELD      N/A     61  61 100 S5        30.27R
$$



USA.gov is the U.S. government's official web portal to all federal, state and local government web resources and services.